Погода в Зарагиже

Россия / Кабардино-Балкарская Республика     43°19′59″N   43°42′40″E
темп.,
°C
ветер,
м/с
пор.,
м/с
влажн.,
%
обл.,
%
осадки,
мм/ч
давл.,
гПа
погр.,
м
20 апреля, вт
вт2000:00+12ссз0192100 0.1 101664
03:00+11з0187100 0.1 101330
06:00+13ю2372100 0.0 100949
09:00+20ю254897 0.0 1007492
12:00+24ююз463470 0.1 10051092
15:00+24юз343415 0.1 10051190
18:00+20з1255100 0.0 100661
21:00+14с1277100 0.5 101063
21 апреля, ср
ср2100:00+13ссв1493100 0.1 1013417
03:00+11св249595 1.6 1015441
06:00+10ссв238793 0.1 1016402
09:00+10св237093 0.1 1019631
12:00+10в227085 0.1 1018782
15:00+10всв3375100 0.3 1019874
18:00+9юв018662 0.5 1020257
21:00+8юз0191100 0.5 1022103
22 апреля, чт
чт2200:00+8юв0192100 0.1 1021111
03:00+8юв0194100 0.1 102186
06:00+8всв1197100 1.0 1020270
09:00+8св2398100 2.0 1022333
12:00+7св1293100 0.5 1023347
15:00+7всв1191100 0.7 1023438
18:00+7ю1292100 0.1 1022114
21:00+7з1196100 5.2 102264
23 апреля, пт
пт2300:00+6ссв12100100 5.8 1021165
03:00+6з1298100 9.9 1022165
06:00+6св1198100 2.5 1023138
09:00+6сз1296100 5.6 1024225
12:00+10ююз227897 2.6 1023580
15:00+13св226454 2.7 10211049
18:00+11всв238136 0.2 1021251
21:00+7юз22895 0.3 102227
24 апреля, сб
сб2400:00+5юз336777 0.0 102142
03:00+6юз2266100 0.0 102030
06:00+7зюз2164100 0.0 102020
09:00+12св215729 0.0 1019622
12:00+16св33476 0.0 10171327
15:00+16св325376 0.0 10181322
18:00+13ссв1268100 0.0 101945
21:00+10юз217562 0.0 102014